PAA1822 CYVR-KSAN

Flight info

Callsign PAA1822
Flight time 2h 37m
Altitude 35000
Route CYVR YVR J5 SEA PAWLI Q11 PASKE HUULK LAX HUBRD1
Aircraft L101/H-FAA/L

Departure

Time 2026-05-07 13:40
Airport Vancouver International Airport (CYVR)

Arrival

Time 2026-05-07 16:17
Airport San Diego International Airport (KSAN)
Time Latitude Longitude Altitude Speed Heading
2026-05-07 13:19 49.19573 -123.18034 30 ft 0 kts 154°
2026-05-07 13:25 49.19579 -123.18038 28 ft 3 kts 154°
2026-05-07 13:25 49.19595 -123.18051 28 ft 3 kts 154°
2026-05-07 13:25 49.19612 -123.18063 28 ft 3 kts 160°
2026-05-07 13:25 49.19630 -123.18064 29 ft 3 kts 206°
2026-05-07 13:26 49.19647 -123.18053 28 ft 3 kts 175°
2026-05-07 13:26 49.19664 -123.18063 29 ft 3 kts 135°
2026-05-07 13:26 49.19676 -123.18082 28 ft 2 kts 135°
2026-05-07 13:26 49.19679 -123.18086 28 ft 0 kts 135°
2026-05-07 13:31 49.19684 -123.18094 28 ft 2 kts 136°
2026-05-07 13:31 49.19663 -123.18081 28 ft 5 kts 174°
2026-05-07 13:32 49.19630 -123.18115 27 ft 6 kts 244°
2026-05-07 13:32 49.19646 -123.18186 29 ft 9 kts 315°
2026-05-07 13:32 49.19681 -123.18278 30 ft 11 kts 282°
2026-05-07 13:32 49.19695 -123.18409 30 ft 14 kts 279°
2026-05-07 13:33 49.19713 -123.18576 30 ft 18 kts 280°
2026-05-07 13:33 49.19719 -123.18640 30 ft 0 kts 266°
2026-05-07 13:33 49.19719 -123.18641 30 ft 1 kts 266°
2026-05-07 13:33 49.19712 -123.18666 28 ft 4 kts 235°
2026-05-07 13:34 49.19680 -123.18681 30 ft 6 kts 188°
2026-05-07 13:34 49.19539 -123.18719 30 ft 14 kts 189°
2026-05-07 13:34 49.19436 -123.18749 28 ft 17 kts 200°
2026-05-07 13:35 49.19375 -123.18896 30 ft 19 kts 258°
2026-05-07 13:35 49.19349 -123.19104 30 ft 21 kts 259°
2026-05-07 13:35 49.19319 -123.19342 30 ft 24 kts 259°
2026-05-07 13:35 49.19285 -123.19607 30 ft 27 kts 259°
2026-05-07 13:36 49.19254 -123.19874 30 ft 24 kts 260°
2026-05-07 13:36 49.19238 -123.20002 30 ft 11 kts 260°
2026-05-07 13:36 49.19221 -123.20139 29 ft 15 kts 259°
2026-05-07 13:36 49.19199 -123.20313 30 ft 18 kts 259°
2026-05-07 13:37 49.19180 -123.20521 30 ft 21 kts 274°
2026-05-07 13:37 49.19200 -123.20701 29 ft 8 kts 281°
2026-05-07 13:37 49.19191 -123.20794 29 ft 9 kts 238°
2026-05-07 13:37 49.19131 -123.20834 30 ft 11 kts 192°
2026-05-07 13:38 49.19045 -123.20852 28 ft 13 kts 174°
2026-05-07 13:38 49.19008 -123.20763 30 ft 0 kts 99°
2026-05-07 13:38 49.19008 -123.20762 30 ft 0 kts 99°
2026-05-07 13:39 49.19007 -123.20760 30 ft 1 kts 99°
2026-05-07 13:39 49.18999 -123.20682 30 ft 25 kts 99°
2026-05-07 13:39 49.18910 -123.19900 30 ft 122 kts 100°
2026-05-07 13:39 49.18738 -123.18294 425 ft 171 kts 98°
2026-05-07 13:40 49.18589 -123.16423 1499 ft 182 kts 92°
2026-05-07 13:40 49.18587 -123.14456 2663 ft 186 kts 89°
2026-05-07 13:40 49.18646 -123.12421 3426 ft 202 kts 90°
2026-05-07 13:40 49.18313 -123.10225 3945 ft 223 kts 113°
2026-05-07 13:41 49.17417 -123.08206 4689 ft 240 kts 134°
2026-05-07 13:41 49.16064 -123.06718 5871 ft 238 kts 154°
2026-05-07 13:41 49.14448 -123.06081 6866 ft 247 kts 176°
2026-05-07 13:41 49.12732 -123.06191 7881 ft 250 kts 184°
2026-05-07 13:42 49.10958 -123.06390 8556 ft 268 kts 184°
2026-05-07 13:42 49.09044 -123.06666 9223 ft 284 kts 185°
2026-05-07 13:42 49.06983 -123.06962 9632 ft 307 kts 185°
2026-05-07 13:42 49.04873 -123.07279 10643 ft 303 kts 185°
2026-05-07 13:43 49.02802 -123.07584 11742 ft 296 kts 186°
2026-05-07 13:43 49.00705 -123.07878 12249 ft 315 kts 185°
2026-05-07 13:43 48.98412 -123.08186 12199 ft 347 kts 185°
2026-05-07 13:43 48.95907 -123.08518 12195 ft 372 kts 185°
2026-05-07 13:44 48.93281 -123.08855 12569 ft 384 kts 184°
2026-05-07 13:44 48.90590 -123.08678 13085 ft 390 kts 171°
2026-05-07 13:44 48.87959 -123.07705 13885 ft 388 kts 162°
2026-05-07 13:44 48.85431 -123.06359 14712 ft 384 kts 159°
2026-05-07 13:45 48.83027 -123.04521 15029 ft 394 kts 147°
2026-05-07 13:45 48.80713 -123.02216 15371 ft 402 kts 148°
2026-05-07 13:45 48.78215 -123.00180 15649 ft 412 kts 156°
2026-05-07 13:45 48.75543 -122.98548 16118 ft 415 kts 161°
2026-05-07 13:46 48.72814 -122.97167 16790 ft 412 kts 163°
2026-05-07 13:46 48.70092 -122.95874 17522 ft 409 kts 163°
2026-05-07 13:46 48.67352 -122.94571 17890 ft 417 kts 163°
2026-05-07 13:46 48.64556 -122.93218 18126 ft 426 kts 163°
2026-05-07 13:47 48.61706 -122.91819 18437 ft 433 kts 163°
2026-05-07 13:47 48.58830 -122.90395 18886 ft 434 kts 163°
2026-05-07 13:47 48.55974 -122.88972 19504 ft 430 kts 163°
2026-05-07 13:47 48.53141 -122.87558 20087 ft 428 kts 163°
2026-05-07 13:48 48.50291 -122.86136 20320 ft 436 kts 163°
2026-05-07 13:48 48.47383 -122.84690 20527 ft 443 kts 163°
2026-05-07 13:48 48.44440 -122.83232 20836 ft 447 kts 163°
2026-05-07 13:48 48.41494 -122.81774 21347 ft 445 kts 163°
2026-05-07 13:49 48.38606 -122.80344 21984 ft 441 kts 163°
2026-05-07 13:49 48.35684 -122.78895 22292 ft 446 kts 163°
2026-05-07 13:49 48.32707 -122.77420 22408 ft 455 kts 163°
2026-05-07 13:49 48.29677 -122.75921 22540 ft 462 kts 163°
2026-05-07 13:50 48.26614 -122.74408 22869 ft 464 kts 163°
2026-05-07 13:50 48.23551 -122.72894 23385 ft 462 kts 163°
2026-05-07 13:50 48.20516 -122.71394 23988 ft 457 kts 163°
2026-05-07 13:50 48.17497 -122.69901 24295 ft 459 kts 164°
2026-05-07 13:51 48.14433 -122.68389 24352 ft 468 kts 164°
2026-05-07 13:51 48.11317 -122.66853 24400 ft 476 kts 164°
2026-05-07 13:51 48.08153 -122.65296 24546 ft 480 kts 164°
2026-05-07 13:51 48.04985 -122.63723 24898 ft 478 kts 163°
2026-05-07 13:52 48.01854 -122.62130 25435 ft 473 kts 163°
2026-05-07 13:52 47.98791 -122.60386 25969 ft 469 kts 160°
2026-05-07 13:52 47.95798 -122.58558 26623 ft 461 kts 160°
2026-05-07 13:52 47.92860 -122.56764 27388 ft 452 kts 161°
2026-05-07 13:53 47.89953 -122.55040 28055 ft 447 kts 162°
2026-05-07 13:53 47.87041 -122.53379 28398 ft 450 kts 163°
2026-05-07 13:53 47.84091 -122.51759 28656 ft 454 kts 163°
2026-05-07 13:53 47.81135 -122.50183 28909 ft 458 kts 164°
2026-05-07 13:54 47.78116 -122.48608 29196 ft 462 kts 165°
2026-05-07 13:54 47.75062 -122.47035 29466 ft 466 kts 165°
2026-05-07 13:54 47.71984 -122.45458 29727 ft 469 kts 165°
2026-05-07 13:54 47.68884 -122.43870 30014 ft 473 kts 165°
2026-05-07 13:55 47.65769 -122.42274 30281 ft 476 kts 165°
2026-05-07 13:55 47.62624 -122.40664 30517 ft 478 kts 165°
2026-05-07 13:55 47.59471 -122.39052 30757 ft 481 kts 165°
2026-05-07 13:55 47.56293 -122.37431 30998 ft 483 kts 165°
2026-05-07 13:56 47.53111 -122.35810 31242 ft 485 kts 165°
2026-05-07 13:56 47.50993 -122.34730 31399 ft 487 kts 165°
2026-05-07 13:56 47.46698 -122.32496 31727 ft 490 kts 165°
2026-05-07 13:56 47.44557 -122.31415 31890 ft 491 kts 166°
2026-05-07 13:57 47.41309 -122.29850 32144 ft 492 kts 164°
2026-05-07 13:57 47.38114 -122.27911 32377 ft 498 kts 160°
2026-05-07 13:57 47.34920 -122.25958 32630 ft 497 kts 164°
2026-05-07 13:57 47.31653 -122.24252 32883 ft 498 kts 165°
2026-05-07 13:58 47.28384 -122.22548 33137 ft 500 kts 164°
2026-05-07 13:58 47.25124 -122.20735 33397 ft 502 kts 163°
2026-05-07 13:58 47.21866 -122.18874 33650 ft 503 kts 163°
2026-05-07 13:58 47.18598 -122.17018 33923 ft 504 kts 163°
2026-05-07 13:59 47.15320 -122.15181 34170 ft 505 kts 163°
2026-05-07 13:59 47.12022 -122.13350 34410 ft 506 kts 163°
2026-05-07 13:59 47.08729 -122.11528 34651 ft 507 kts 163°
2026-05-07 13:59 47.05430 -122.09704 34892 ft 507 kts 164°
2026-05-07 14:00 47.02119 -122.07873 35068 ft 510 kts 163°
2026-05-07 14:00 46.95390 -122.04377 35168 ft 515 kts 171°
2026-05-07 14:01 46.88307 -122.03080 35199 ft 513 kts 185°
2026-05-07 14:01 46.81246 -122.03568 35189 ft 504 kts 191°
2026-05-07 14:02 46.74287 -122.04646 35190 ft 502 kts 193°
2026-05-07 14:02 46.67353 -122.05918 35194 ft 501 kts 193°
2026-05-07 14:03 46.60448 -122.07252 35194 ft 500 kts 193°
2026-05-07 14:03 46.53423 -122.07520 35219 ft 509 kts 181°
2026-05-07 14:04 46.46384 -122.06439 35206 ft 514 kts 177°
2026-05-07 14:04 46.39310 -122.04871 35222 ft 515 kts 175°
2026-05-07 14:05 46.32234 -122.03140 35186 ft 515 kts 175°
2026-05-07 14:05 46.25177 -122.01397 35199 ft 514 kts 175°
2026-05-07 14:06 46.18119 -121.99668 35189 ft 514 kts 175°
2026-05-07 14:06 46.11080 -121.97944 35219 ft 512 kts 175°
2026-05-07 14:07 46.04046 -121.96163 35190 ft 514 kts 173°
2026-05-07 14:07 45.97066 -121.93782 35177 ft 516 kts 170°
2026-05-07 14:08 45.90117 -121.91168 35185 ft 517 kts 169°
2026-05-07 14:08 45.83164 -121.88538 35183 ft 517 kts 169°
2026-05-07 14:09 45.76214 -121.85917 35144 ft 515 kts 169°
2026-05-07 14:09 45.69289 -121.83316 35176 ft 514 kts 169°
2026-05-07 14:10 45.62367 -121.80731 35203 ft 514 kts 169°
2026-05-07 14:10 45.55436 -121.78130 35152 ft 514 kts 169°
2026-05-07 14:11 45.48520 -121.75556 35170 ft 514 kts 169°
2026-05-07 14:11 45.41596 -121.72988 35155 ft 514 kts 169°
2026-05-07 14:12 45.34706 -121.70426 35118 ft 515 kts 169°
2026-05-07 14:12 45.27771 -121.67845 35104 ft 515 kts 169°
2026-05-07 14:13 45.20844 -121.65302 35126 ft 513 kts 169°
2026-05-07 14:13 45.13933 -121.62771 35113 ft 512 kts 169°
2026-05-07 14:14 45.07029 -121.60245 35109 ft 513 kts 169°
2026-05-07 14:14 45.00117 -121.57724 35099 ft 513 kts 169°
2026-05-07 14:15 44.93208 -121.55208 35078 ft 513 kts 169°
2026-05-07 14:15 44.86299 -121.52699 35082 ft 513 kts 169°
2026-05-07 14:16 44.79387 -121.50195 35080 ft 512 kts 169°
2026-05-07 14:16 44.72483 -121.47703 35074 ft 512 kts 168°
2026-05-07 14:17 44.65613 -121.45228 35075 ft 512 kts 168°
2026-05-07 14:17 44.58660 -121.42731 35066 ft 512 kts 169°
2026-05-07 14:18 44.51801 -121.40278 35059 ft 512 kts 168°
2026-05-07 14:18 44.44892 -121.37812 35066 ft 512 kts 168°
2026-05-07 14:19 44.37989 -121.35353 35060 ft 512 kts 168°
2026-05-07 14:19 44.31086 -121.32902 35056 ft 512 kts 168°
2026-05-07 14:20 44.24180 -121.30459 35114 ft 512 kts 169°
2026-05-07 14:20 44.17284 -121.28027 35125 ft 511 kts 169°
2026-05-07 14:21 44.10388 -121.25606 35134 ft 511 kts 168°
2026-05-07 14:21 44.03481 -121.23185 35134 ft 511 kts 168°
2026-05-07 14:22 43.96579 -121.20773 35121 ft 511 kts 168°
2026-05-07 14:22 43.89680 -121.18364 35102 ft 511 kts 168°
2026-05-07 14:23 43.82780 -121.15963 35081 ft 511 kts 168°
2026-05-07 14:23 43.75882 -121.13573 35068 ft 511 kts 168°
2026-05-07 14:24 43.68995 -121.11200 35067 ft 509 kts 168°
2026-05-07 14:24 43.62116 -121.08834 35060 ft 509 kts 168°
2026-05-07 14:25 43.55246 -121.06481 35070 ft 509 kts 168°
2026-05-07 14:25 43.48369 -121.04139 35083 ft 508 kts 168°
2026-05-07 14:26 43.41546 -121.01823 35085 ft 509 kts 168°
2026-05-07 14:26 43.34677 -120.99505 35089 ft 508 kts 168°
2026-05-07 14:27 43.27814 -120.97199 35098 ft 507 kts 168°
2026-05-07 14:27 43.20954 -120.94919 35098 ft 506 kts 169°
2026-05-07 14:28 43.14058 -120.93096 35105 ft 504 kts 172°
2026-05-07 14:28 43.07142 -120.91445 35101 ft 504 kts 172°
2026-05-07 14:29 43.00235 -120.89730 35113 ft 504 kts 172°
2026-05-07 14:29 42.93324 -120.88041 35105 ft 505 kts 172°
2026-05-07 14:30 42.86406 -120.86364 35104 ft 505 kts 172°
2026-05-07 14:30 42.79479 -120.84686 35106 ft 505 kts 172°
2026-05-07 14:31 42.72571 -120.83004 35112 ft 504 kts 172°
2026-05-07 14:31 42.65663 -120.81334 35117 ft 504 kts 172°
2026-05-07 14:32 42.58796 -120.79690 35121 ft 504 kts 172°
2026-05-07 14:32 42.51884 -120.78028 35119 ft 504 kts 172°
2026-05-07 14:33 42.44969 -120.76366 35124 ft 504 kts 172°
2026-05-07 14:33 42.38059 -120.74723 35125 ft 504 kts 172°
2026-05-07 14:34 42.31166 -120.73060 35134 ft 502 kts 171°
2026-05-07 14:34 42.24295 -120.71424 35144 ft 501 kts 172°
2026-05-07 14:35 42.17418 -120.69796 35171 ft 502 kts 172°
2026-05-07 14:35 42.10532 -120.68159 35182 ft 502 kts 172°
2026-05-07 14:36 42.03650 -120.66543 35168 ft 502 kts 171°
2026-05-07 14:36 41.96758 -120.64909 35160 ft 503 kts 171°
2026-05-07 14:37 41.89875 -120.63286 35153 ft 501 kts 171°
2026-05-07 14:37 41.79553 -120.60855 35129 ft 501 kts 171°
2026-05-07 14:38 41.72728 -120.59269 35135 ft 501 kts 171°
2026-05-07 14:38 41.65857 -120.57648 35122 ft 501 kts 171°
2026-05-07 14:39 41.58972 -120.56039 35127 ft 502 kts 171°
2026-05-07 14:39 41.52055 -120.54437 35119 ft 501 kts 171°
2026-05-07 14:40 41.45233 -120.52856 35217 ft 500 kts 171°
2026-05-07 14:40 41.38327 -120.51257 35205 ft 500 kts 171°
2026-05-07 14:41 41.31474 -120.49658 35174 ft 500 kts 171°
2026-05-07 14:41 41.24648 -120.48082 35156 ft 501 kts 171°
2026-05-07 14:42 41.17772 -120.46506 35123 ft 501 kts 171°
2026-05-07 14:42 41.12058 -120.45195 35108 ft 500 kts 171°
2026-05-07 14:43 41.05210 -120.43614 35101 ft 500 kts 171°
2026-05-07 14:43 40.98394 -120.41780 35102 ft 500 kts 167°
2026-05-07 14:44 40.91612 -120.39680 35093 ft 500 kts 167°
2026-05-07 14:44 40.84809 -120.37604 35104 ft 500 kts 167°
2026-05-07 14:45 40.78024 -120.35527 35089 ft 500 kts 167°
2026-05-07 14:45 40.71293 -120.33457 35093 ft 500 kts 167°
2026-05-07 14:46 40.64522 -120.31378 35103 ft 499 kts 167°
2026-05-07 14:46 40.57886 -120.29338 35117 ft 479 kts 167°
2026-05-07 14:47 40.51427 -120.27346 35133 ft 477 kts 167°
2026-05-07 14:47 40.44964 -120.25382 35137 ft 477 kts 167°
2026-05-07 14:48 40.38504 -120.23418 35133 ft 476 kts 167°
2026-05-07 14:48 40.32065 -120.21435 35117 ft 475 kts 167°
2026-05-07 14:49 40.25625 -120.19463 35101 ft 475 kts 167°
2026-05-07 14:49 40.19182 -120.17517 35080 ft 475 kts 167°
2026-05-07 14:50 40.12781 -120.15569 35079 ft 475 kts 167°
2026-05-07 14:50 40.06344 -120.13613 35077 ft 475 kts 167°
2026-05-07 14:51 39.99900 -120.11664 35077 ft 475 kts 167°
2026-05-07 14:51 39.93459 -120.09717 35080 ft 476 kts 167°
2026-05-07 14:52 39.87000 -120.07780 35077 ft 476 kts 167°
2026-05-07 14:52 39.80544 -120.05836 35075 ft 476 kts 167°
2026-05-07 14:53 39.74088 -120.03917 35079 ft 476 kts 167°
2026-05-07 14:53 39.67633 -120.01972 35081 ft 476 kts 167°
2026-05-07 14:54 39.61180 -120.00049 35078 ft 476 kts 167°
2026-05-07 14:54 39.57955 -119.99094 35216 ft 476 kts 167°
2026-05-07 14:54 39.54745 -119.98139 35195 ft 469 kts 167°
2026-05-07 14:55 39.48499 -119.96270 35184 ft 461 kts 167°
2026-05-07 14:55 39.42238 -119.94401 35183 ft 461 kts 167°
2026-05-07 14:56 39.35980 -119.92546 35184 ft 461 kts 167°
2026-05-07 14:56 39.29731 -119.90700 35206 ft 460 kts 167°
2026-05-07 14:57 39.23484 -119.88863 35231 ft 460 kts 167°
2026-05-07 14:57 39.17240 -119.87027 35237 ft 460 kts 166°
2026-05-07 14:58 39.11009 -119.85185 35235 ft 459 kts 166°
2026-05-07 14:58 39.04780 -119.83349 35238 ft 459 kts 167°
2026-05-07 14:59 38.98544 -119.81530 35242 ft 460 kts 166°
2026-05-07 14:59 38.92295 -119.79700 35238 ft 461 kts 166°
2026-05-07 15:00 38.86039 -119.77871 35224 ft 461 kts 166°
2026-05-07 15:00 38.79821 -119.76056 35211 ft 461 kts 166°
2026-05-07 15:01 38.73570 -119.74225 35231 ft 461 kts 166°
2026-05-07 15:01 38.67315 -119.72398 35210 ft 461 kts 167°
2026-05-07 15:02 38.61062 -119.70607 35177 ft 461 kts 167°
2026-05-07 15:02 38.54815 -119.68796 35179 ft 460 kts 166°
2026-05-07 15:03 38.48575 -119.66990 35179 ft 460 kts 166°
2026-05-07 15:03 38.42338 -119.65182 35185 ft 460 kts 166°
2026-05-07 15:04 38.36102 -119.63377 35181 ft 459 kts 166°
2026-05-07 15:04 38.29867 -119.61597 35183 ft 459 kts 167°
2026-05-07 15:05 38.23626 -119.59884 35184 ft 459 kts 167°
2026-05-07 15:05 38.17389 -119.58143 35182 ft 459 kts 166°
2026-05-07 15:06 38.11156 -119.56381 35181 ft 459 kts 166°
2026-05-07 15:06 38.04962 -119.54630 35177 ft 459 kts 166°
2026-05-07 15:07 37.98724 -119.52859 35182 ft 459 kts 166°
2026-05-07 15:07 37.92479 -119.51091 35171 ft 460 kts 166°
2026-05-07 15:08 37.86227 -119.49325 35164 ft 460 kts 166°
2026-05-07 15:08 37.79980 -119.47577 35164 ft 460 kts 166°
2026-05-07 15:09 37.73729 -119.45815 35163 ft 460 kts 166°
2026-05-07 15:09 37.67481 -119.44065 35154 ft 460 kts 166°
2026-05-07 15:10 37.61235 -119.42322 35146 ft 460 kts 166°
2026-05-07 15:10 37.54985 -119.40578 35135 ft 460 kts 166°
2026-05-07 15:11 37.48736 -119.38826 35135 ft 460 kts 166°
2026-05-07 15:11 37.42487 -119.37081 35129 ft 460 kts 166°
2026-05-07 15:12 37.36239 -119.35341 35128 ft 460 kts 166°
2026-05-07 15:12 37.29989 -119.33608 35117 ft 460 kts 166°
2026-05-07 15:13 37.23779 -119.31888 35115 ft 460 kts 166°
2026-05-07 15:13 37.17486 -119.30146 35111 ft 460 kts 166°
2026-05-07 15:14 37.11274 -119.28424 35108 ft 460 kts 166°
2026-05-07 15:14 37.05016 -119.26698 35104 ft 461 kts 166°
2026-05-07 15:15 36.98750 -119.24978 35105 ft 461 kts 166°
2026-05-07 15:15 36.92482 -119.23256 35106 ft 461 kts 166°
2026-05-07 15:16 36.86219 -119.21533 35110 ft 461 kts 166°
2026-05-07 15:16 36.79952 -119.19823 35111 ft 461 kts 166°
2026-05-07 15:17 36.73682 -119.18145 35099 ft 461 kts 170°
2026-05-07 15:17 36.67291 -119.18143 35106 ft 462 kts 190°
2026-05-07 15:18 36.61222 -119.20723 35103 ft 462 kts 210°
2026-05-07 15:18 36.56177 -119.25573 35101 ft 455 kts 230°
2026-05-07 15:19 36.54254 -119.28639 35121 ft 444 kts 240°
2026-05-07 15:19 36.52829 -119.32000 35127 ft 438 kts 251°
2026-05-07 15:19 36.51568 -119.39311 35131 ft 431 kts 272°
2026-05-07 15:20 36.51770 -119.43010 35134 ft 428 kts 283°
2026-05-07 15:20 36.52517 -119.46565 35131 ft 424 kts 294°
2026-05-07 15:20 36.55505 -119.52770 35127 ft 418 kts 315°
2026-05-07 15:21 36.57630 -119.55202 35125 ft 414 kts 326°
2026-05-07 15:21 36.60073 -119.57076 35124 ft 411 kts 336°
2026-05-07 15:21 36.62747 -119.58317 35129 ft 410 kts 347°
2026-05-07 15:21 36.65561 -119.58888 35129 ft 410 kts 358°
2026-05-07 15:22 36.71175 -119.57956 35132 ft 410 kts 19°
2026-05-07 15:22 36.73768 -119.56490 35131 ft 411 kts 30°
2026-05-07 15:22 36.76094 -119.54418 35130 ft 413 kts 41°
2026-05-07 15:23 36.78043 -119.51852 35130 ft 414 kts 52°
2026-05-07 15:23 36.79610 -119.48774 35126 ft 416 kts 63°
2026-05-07 15:23 36.81179 -119.41886 35119 ft 421 kts 84°
2026-05-07 15:24 36.81157 -119.38226 35115 ft 424 kts 95°
2026-05-07 15:24 36.80580 -119.34608 35112 ft 428 kts 105°
2026-05-07 15:24 36.79464 -119.31161 35110 ft 431 kts 116°
2026-05-07 15:24 36.77842 -119.28003 35108 ft 434 kts 127°
2026-05-07 15:25 36.73314 -119.23002 35113 ft 440 kts 147°
2026-05-07 15:25 36.67831 -119.19602 35113 ft 442 kts 153°
2026-05-07 15:26 36.62210 -119.16420 35111 ft 443 kts 154°
2026-05-07 15:26 36.56574 -119.13287 35108 ft 444 kts 157°
2026-05-07 15:27 36.50561 -119.11531 35124 ft 445 kts 170°
2026-05-07 15:27 36.44484 -119.10188 35125 ft 447 kts 167°
2026-05-07 15:28 36.38403 -119.08514 35125 ft 448 kts 166°
2026-05-07 15:28 36.32315 -119.06865 35128 ft 448 kts 167°
2026-05-07 15:29 36.26225 -119.05228 35117 ft 448 kts 167°
2026-05-07 15:29 36.20118 -119.03582 35123 ft 450 kts 167°
2026-05-07 15:30 36.14000 -119.01937 35123 ft 450 kts 167°
2026-05-07 15:30 36.08866 -119.00582 35128 ft 450 kts 167°
2026-05-07 15:31 36.02726 -118.98972 35123 ft 452 kts 167°
2026-05-07 15:31 35.96603 -118.97361 35124 ft 453 kts 167°
2026-05-07 15:32 35.90439 -118.95712 35131 ft 453 kts 167°
2026-05-07 15:32 35.84293 -118.94078 35115 ft 452 kts 167°
2026-05-07 15:33 35.78139 -118.92442 35111 ft 453 kts 167°
2026-05-07 15:33 35.71980 -118.90817 35116 ft 453 kts 167°
2026-05-07 15:34 35.65818 -118.89182 35125 ft 453 kts 167°
2026-05-07 15:34 35.59637 -118.87556 35125 ft 456 kts 167°
2026-05-07 15:35 35.53433 -118.85912 35122 ft 456 kts 167°
2026-05-07 15:35 35.47232 -118.84277 35127 ft 456 kts 167°
2026-05-07 15:36 35.41018 -118.82641 35126 ft 458 kts 168°
2026-05-07 15:36 35.34780 -118.80999 35121 ft 458 kts 168°
2026-05-07 15:37 35.28542 -118.79352 35119 ft 458 kts 167°
2026-05-07 15:37 35.22302 -118.77716 35116 ft 459 kts 168°
2026-05-07 15:38 35.16043 -118.76089 35111 ft 460 kts 168°
2026-05-07 15:38 35.09784 -118.74450 35155 ft 460 kts 168°
2026-05-07 15:39 35.03518 -118.72828 35141 ft 460 kts 168°
2026-05-07 15:39 34.97234 -118.71208 35138 ft 462 kts 168°
2026-05-07 15:40 34.90952 -118.69566 35126 ft 462 kts 168°
2026-05-07 15:40 34.84663 -118.67910 35094 ft 462 kts 168°
2026-05-07 15:41 34.78416 -118.66282 35094 ft 462 kts 168°
2026-05-07 15:41 34.72129 -118.64674 35072 ft 461 kts 168°
2026-05-07 15:42 34.65849 -118.63050 35066 ft 461 kts 168°
2026-05-07 15:42 34.59575 -118.61452 35062 ft 461 kts 168°
2026-05-07 15:43 34.53281 -118.59827 35061 ft 462 kts 168°
2026-05-07 15:43 34.46992 -118.58206 35046 ft 463 kts 168°
2026-05-07 15:44 34.40698 -118.56557 35083 ft 463 kts 168°
2026-05-07 15:44 34.34415 -118.54914 34754 ft 455 kts 168°
2026-05-07 15:45 34.31346 -118.54096 34140 ft 449 kts 168°
2026-05-07 15:45 34.28304 -118.53269 33318 ft 447 kts 166°
2026-05-07 15:45 34.25296 -118.52381 32523 ft 444 kts 166°
2026-05-07 15:45 34.22317 -118.51477 31861 ft 438 kts 166°
2026-05-07 15:46 34.16524 -118.49762 30859 ft 419 kts 166°
2026-05-07 15:46 34.13707 -118.48957 30282 ft 414 kts 166°
2026-05-07 15:46 34.10910 -118.48169 29504 ft 412 kts 166°
2026-05-07 15:47 34.08127 -118.47389 28697 ft 410 kts 166°
2026-05-07 15:47 34.05364 -118.46610 27990 ft 405 kts 166°
2026-05-07 15:47 34.02648 -118.45825 27432 ft 397 kts 165°
2026-05-07 15:47 33.99977 -118.45090 26878 ft 390 kts 166°
2026-05-07 15:48 33.97337 -118.44411 26211 ft 387 kts 167°
2026-05-07 15:48 33.94714 -118.43765 25745 ft 382 kts 167°
2026-05-07 15:48 33.92144 -118.43093 25407 ft 383 kts 160°
2026-05-07 15:48 33.89734 -118.41824 25211 ft 380 kts 146°
2026-05-07 15:49 33.87637 -118.39923 25128 ft 375 kts 130°
2026-05-07 15:49 33.86205 -118.37365 25083 ft 366 kts 108°
2026-05-07 15:49 33.85517 -118.34388 24865 ft 364 kts 101°
2026-05-07 15:49 33.84637 -118.31549 24549 ft 372 kts 117°
2026-05-07 15:50 33.83080 -118.29062 24230 ft 373 kts 130°
2026-05-07 15:50 33.81170 -118.26949 23908 ft 373 kts 136°
2026-05-07 15:50 33.79244 -118.24809 23559 ft 371 kts 131°
2026-05-07 15:50 33.77471 -118.22573 23139 ft 368 kts 129°
2026-05-07 15:51 33.75785 -118.20321 22752 ft 366 kts 128°
2026-05-07 15:51 33.74096 -118.18048 22342 ft 363 kts 128°
2026-05-07 15:51 33.72410 -118.15801 21959 ft 361 kts 129°
2026-05-07 15:51 33.70725 -118.13578 21575 ft 358 kts 129°
2026-05-07 15:52 33.69045 -118.11377 21207 ft 356 kts 129°
2026-05-07 15:52 33.67377 -118.09196 20854 ft 353 kts 129°
2026-05-07 15:52 33.65702 -118.07006 20614 ft 363 kts 129°
2026-05-07 15:52 33.63962 -118.04727 20366 ft 374 kts 129°
2026-05-07 15:53 33.62199 -118.02419 20117 ft 375 kts 129°
2026-05-07 15:53 33.60435 -118.00117 19875 ft 374 kts 129°
2026-05-07 15:53 33.58681 -117.97829 19640 ft 372 kts 129°
2026-05-07 15:53 33.56930 -117.95545 19405 ft 371 kts 129°
2026-05-07 15:54 33.55189 -117.93275 19173 ft 369 kts 129°
2026-05-07 15:54 33.53455 -117.91013 18936 ft 368 kts 129°
2026-05-07 15:54 33.51728 -117.88761 18703 ft 366 kts 129°
2026-05-07 15:54 33.50005 -117.86515 18478 ft 365 kts 129°
2026-05-07 15:55 33.48290 -117.84281 18232 ft 364 kts 129°
2026-05-07 15:55 33.46582 -117.82055 17960 ft 362 kts 129°
2026-05-07 15:55 33.44875 -117.79831 17716 ft 369 kts 129°
2026-05-07 15:55 33.43101 -117.77513 17463 ft 382 kts 129°
2026-05-07 15:56 33.41304 -117.75168 17191 ft 382 kts 129°
2026-05-07 15:56 33.39507 -117.72830 16931 ft 381 kts 129°
2026-05-07 15:56 33.37716 -117.70500 16595 ft 380 kts 129°
2026-05-07 15:56 33.35929 -117.68178 16194 ft 377 kts 129°
2026-05-07 15:57 33.34163 -117.65878 15803 ft 374 kts 129°
2026-05-07 15:57 33.32410 -117.63584 15414 ft 372 kts 129°
2026-05-07 15:57 33.30681 -117.61317 15185 ft 366 kts 129°
2026-05-07 15:57 33.29036 -117.59163 15053 ft 343 kts 129°
2026-05-07 15:58 33.27448 -117.57095 15011 ft 328 kts 129°
2026-05-07 15:58 33.25908 -117.55093 15008 ft 329 kts 129°
2026-05-07 15:58 33.24405 -117.53068 14810 ft 330 kts 127°
2026-05-07 15:58 33.22827 -117.50924 14591 ft 347 kts 128°
2026-05-07 15:59 33.21238 -117.48791 14354 ft 352 kts 130°
2026-05-07 15:59 33.19422 -117.46706 14123 ft 370 kts 136°
2026-05-07 15:59 33.17383 -117.44782 13872 ft 375 kts 141°
2026-05-07 15:59 33.15215 -117.43059 13600 ft 369 kts 146°
2026-05-07 16:00 33.13061 -117.41576 13338 ft 345 kts 149°
2026-05-07 16:00 33.10996 -117.40297 13066 ft 325 kts 150°
2026-05-07 16:00 33.09021 -117.39151 12776 ft 308 kts 152°
2026-05-07 16:00 33.07094 -117.38070 12140 ft 306 kts 152°
2026-05-07 16:01 33.05163 -117.37007 11441 ft 306 kts 153°
2026-05-07 16:01 33.03227 -117.35957 10715 ft 306 kts 153°
2026-05-07 16:01 33.01296 -117.34917 10100 ft 302 kts 153°
2026-05-07 16:01 32.99398 -117.33900 9561 ft 295 kts 153°
2026-05-07 16:02 32.97547 -117.32907 9005 ft 289 kts 153°
2026-05-07 16:02 32.95723 -117.31915 8294 ft 289 kts 153°
2026-05-07 16:02 32.93953 -117.30782 7527 ft 289 kts 140°
2026-05-07 16:02 32.92617 -117.29002 6835 ft 289 kts 118°
2026-05-07 16:03 32.91837 -117.26866 6516 ft 275 kts 107°
2026-05-07 16:03 32.91318 -117.24739 6276 ft 261 kts 103°
2026-05-07 16:03 32.90902 -117.22698 6102 ft 247 kts 101°
2026-05-07 16:03 32.90534 -117.20768 6024 ft 231 kts 101°
2026-05-07 16:04 32.90199 -117.18986 6037 ft 214 kts 101°
2026-05-07 16:04 32.89873 -117.17233 6008 ft 219 kts 101°
2026-05-07 16:04 32.89543 -117.15456 5993 ft 220 kts 101°
2026-05-07 16:04 32.89213 -117.13676 5984 ft 220 kts 101°
2026-05-07 16:05 32.88887 -117.11919 5981 ft 220 kts 101°
2026-05-07 16:05 32.88557 -117.10143 5980 ft 220 kts 101°
2026-05-07 16:05 32.88225 -117.08364 5979 ft 220 kts 101°
2026-05-07 16:05 32.87894 -117.06585 5980 ft 220 kts 101°
2026-05-07 16:06 32.87565 -117.04808 5979 ft 220 kts 101°
2026-05-07 16:06 32.87236 -117.03027 5986 ft 221 kts 101°
2026-05-07 16:06 32.86895 -117.01169 6018 ft 238 kts 101°
2026-05-07 16:06 32.86539 -116.99224 5975 ft 242 kts 101°
2026-05-07 16:07 32.86181 -116.97272 5952 ft 240 kts 101°
2026-05-07 16:07 32.85643 -116.95467 5857 ft 228 kts 114°
2026-05-07 16:07 32.84893 -116.93843 5721 ft 222 kts 119°
2026-05-07 16:07 32.84087 -116.92282 5607 ft 221 kts 121°
2026-05-07 16:08 32.83261 -116.90733 5492 ft 222 kts 121°
2026-05-07 16:08 32.82431 -116.89188 5356 ft 221 kts 121°
2026-05-07 16:08 32.81597 -116.87649 5252 ft 220 kts 121°
2026-05-07 16:08 32.80753 -116.86126 5103 ft 222 kts 127°
2026-05-07 16:09 32.79496 -116.85095 4931 ft 222 kts 161°
2026-05-07 16:09 32.77979 -116.84966 5101 ft 219 kts 183°
2026-05-07 16:09 32.76438 -116.85215 5272 ft 227 kts 188°
2026-05-07 16:09 32.74877 -116.85561 5182 ft 227 kts 191°
2026-05-07 16:10 32.73355 -116.85924 4960 ft 217 kts 191°
2026-05-07 16:10 32.71965 -116.86410 4699 ft 205 kts 210°
2026-05-07 16:10 32.71024 -116.87620 4479 ft 199 kts 240°
2026-05-07 16:10 32.70430 -116.89101 4373 ft 199 kts 249°
2026-05-07 16:11 32.69914 -116.90630 4253 ft 200 kts 251°
2026-05-07 16:11 32.69413 -116.92172 4097 ft 200 kts 251°
2026-05-07 16:11 32.68918 -116.93696 3958 ft 198 kts 251°
2026-05-07 16:11 32.68427 -116.95220 3845 ft 195 kts 252°
2026-05-07 16:12 32.68216 -116.96738 3827 ft 185 kts 273°
2026-05-07 16:12 32.68397 -116.98233 3797 ft 182 kts 284°
2026-05-07 16:12 32.68707 -116.99693 3786 ft 183 kts 287°
2026-05-07 16:12 32.69046 -117.01134 3576 ft 182 kts 288°
2026-05-07 16:13 32.69383 -117.02539 3317 ft 169 kts 289°
2026-05-07 16:13 32.69689 -117.03811 3055 ft 153 kts 289°
2026-05-07 16:13 32.69980 -117.05011 2822 ft 151 kts 288°
2026-05-07 16:13 32.70275 -117.06220 2709 ft 154 kts 288°
2026-05-07 16:14 32.70584 -117.07466 2540 ft 156 kts 288°
2026-05-07 16:14 32.70879 -117.08687 2357 ft 152 kts 287°
2026-05-07 16:14 32.71172 -117.09880 2109 ft 154 kts 288°
2026-05-07 16:14 32.71394 -117.10698 1933 ft 154 kts 288°
2026-05-07 16:15 32.71695 -117.11905 1650 ft 151 kts 285°
2026-05-07 16:15 32.72036 -117.13493 1224 ft 150 kts 284°
2026-05-07 16:15 32.72321 -117.14685 919 ft 150 kts 285°
2026-05-07 16:15 32.72610 -117.15857 614 ft 146 kts 285°
2026-05-07 16:16 32.72798 -117.16636 369 ft 145 kts 285°
2026-05-07 16:16 32.73071 -117.17790 67 ft 144 kts 285°
2026-05-07 16:16 32.73317 -117.18805 29 ft 103 kts 287°
2026-05-07 16:16 32.73474 -117.19447 28 ft 62 kts 288°
2026-05-07 16:17 32.73567 -117.19833 30 ft 32 kts 285°
2026-05-07 16:17 32.73610 -117.20008 27 ft 21 kts 287°
2026-05-07 16:17 32.73640 -117.20135 27 ft 11 kts 283°
2026-05-07 16:17 32.73617 -117.20201 27 ft 8 kts 204°
2026-05-07 16:18 32.73575 -117.20216 28 ft 0 kts 196°
2026-05-07 16:18 32.73572 -117.20217 28 ft 1 kts 196°
2026-05-07 16:19 32.73545 -117.20227 27 ft 7 kts 202°
2026-05-07 16:19 32.73497 -117.20282 30 ft 12 kts 230°
2026-05-07 16:19 32.73460 -117.20338 29 ft 2 kts 231°